Tracking 28790 objects as of 19-Apr-2024
HD Live streaming from Space Station
objects crossing your sky now

STARLINK-1513

Track STARLINK-1513 now!
10-day predictions
STARLINK-1513 is classified as:


NORAD ID: 45786
Int'l Code: 2020-038BJ
Perigee: 553.4 km
Apogee: 555.4 km
Inclination: 53.1 °
Period: 95.6 minutes
Semi major axis: 6925 km
RCS: Unknown
Launch date: June 13, 2020
Source: United States (US)
Launch site: AIR FORCE EASTERN TEST RANGE (AFETR)
Your satellite tracking list
Your tracking list is empty




NASA's NSSDC Master Catalog

Two Line Element Set (TLE):
1 45786U 20038BJ  24110.10535475 -.00000485  00000-0 -13670-4 0  9991
2 45786  53.0537  52.2773 0001460  87.4330 272.6826 15.06378662213741
Source of the keplerian elements: AFSPC